Regional Weather Roundup
Issued by NWS

Home | Current Version | Previous Version | Graphics & Text | Print | Product List | Glossary On
Versions: 1 2 3 4 5 6 7 8 9 10 11 12 13 14 15 16 17 18 19 20 21 22 23 24 25 26 27 28 29 30 31 32 33 34 35 36 37 38 39 40 41 42 43 44 45 46 47 48 49 50
328
ASUS43 KDMX 281903
RWRIA

WEATHER ROUNDUP FOR IOWA
NATIONAL WEATHER SERVICE DES MOINES IA
200 PM CDT WED SEP 28 2016

NOTE: "FAIR" INDICATES FEW OR NO CLOUDS BELOW 12,000 FEET WITH NO
SIGNIFICANT WEATHER AND/OR OBSTRUCTIONS TO VISIBILITY.

* - THESE STATIONS ARE NOT NWS STATIONS...THUS NOT UNDER NWS
QUALITY CONTROL.  THEY ALSO DO NOT REPORT WEATHER SUCH
AS PRECIPITATION OR FOG.

IAZ001>003-012>014-020>022-031>034-043>046-282000-
   NORTHWEST IOWA

CITY           SKY/WX    TMP DP  RH WIND       PRES   REMARKS
CARROLL *      PTSUNNY   63  46  55 N16G23    30.17R
CHEROKEE *     PTSUNNY   59  49  69 NW9       30.22S
DENISON *      PTSUNNY   59  46  63 N12G20    30.18F
LE MARS *      PTSUNNY   57  46  67 NE8G15    30.25S
ORANGE CITY *  CLOUDY    55  46  71 N7        30.25R
SHELDON *      CLOUDY    59  46  63 N12       30.23S
SIOUX CITY     SUNNY     62  47  57 N9        30.23S
SPENCER        CLOUDY    60  48  64 N15       30.21S
STORM LAKE *   SUNNY     59  46  63 N14G21    30.20S
$$

IAZ055>058-069>071-079>083-090>094-282000-
   SOUTHWEST IOWA

CITY           SKY/WX    TMP DP  RH WIND       PRES   REMARKS
ATLANTIC *     MOSUNNY   61  46  59 N14G22    30.17F
AUDUBON *      MOSUNNY   63  48  59 N14       30.18S
CLARINDA *       N/A     61  46  59 MISG      30.18F
COUNCIL BLFS * SUNNY     61  46  59 N10       30.19S
CRESTON *      MOSUNNY   61  46  59 N15       30.16S
HARLAN  *      PTSUNNY   59  46  63 N9G16     30.22S
LAMONI         PTSUNNY   62  48  60 NW17G23   30.13R
RED OAK *      MOSUNNY   63  48  59 N14       30.18S
SHENANDOAH *   MOSUNNY   63  46  55 N12G18    30.18S
$$

IAZ047>049-059>061-072>074-084-282000-
   CENTRAL IOWA

CITY           SKY/WX    TMP DP  RH WIND       PRES   REMARKS
AMES           CLOUDY    58  49  72 N17       30.14R
ANKENY *         N/A    N/A N/A N/A MISG        N/A
BOONE *        CLOUDY    57  48  72 N20       30.15R
CHARITON *       N/A     59  48  67 NW12G21   30.12R
DES MOINES     CLOUDY    59  48  67 NW15      30.14R
GRINNELL*      CLOUDY    62  46  57 N13G21    30.11R
KNOXVILLE *    CLOUDY    59  48  67 NW17      30.11R
MARSHALLTOWN   CLOUDY    60  49  66 N20       30.11R
NEWTON *       CLOUDY    61  46  59 N14       30.11R
PELLA *        PTSUNNY   62  47  59 N12G18    30.12R
PERRY *        CLOUDY    62  48  61 N16G23    30.16S
$$

IAZ004>006-015-016-023>025-035-036-282000-
   NORTH CENTRAL IOWA

CITY           SKY/WX    TMP DP  RH WIND       PRES   REMARKS
ALGONA *       CLOUDY    59  48  67 N15G21    30.19R
CLARION *      CLOUDY    59  48  67 N15G22    30.16R
ESTHERVILLE    CLOUDY    58  48  69 N15G24    30.20S
FORT DODGE *   CLOUDY    57  46  67 NW13      30.19R
MASON CITY     CLOUDY    58  48  69 N15G24    30.17R
FOREST CITY *  CLOUDY    59  46  63 N10G22    30.17R
WEBSTER CITY * CLOUDY    59  48  67 N18G25    30.14R
IOWA FALLS *   CLOUDY    61  48  63 N12G17    30.14R
$$

IAZ007>011-017>019-026>030-037>042-050>054-066-282000-
   NORTHEAST IOWA

CITY           SKY/WX    TMP DP  RH WIND       PRES   REMARKS
CEDAR RAPIDS   CLOUDY    61  49  64 N15       30.06R
CHARLES CITY * PTSUNNY   59  52  77 N13       30.13R
CLINTON *      CLOUDY    61  49  64 N14       30.02R
DECORAH *      CLOUDY    59  50  72 N8G14     30.09R
DUBUQUE        CLOUDY    58  48  69 N16G23    30.05R
MONTICELLO *   CLOUDY    63  48  59 N12G22    30.05R
OELWEIN *      CLOUDY    59  48  67 N12G20    30.10R
WATERLOO       CLOUDY    61  48  62 N18       30.10R
$$

IAZ064-065-067-068-078-282000-
   EAST CENTRAL IOWA

CITY           SKY/WX    TMP DP  RH WIND       PRES   REMARKS
DAVENPORT      CLOUDY    62  46  55 N15G22    30.03R
IOWA CITY      CLOUDY    61  49  64 NW12      30.07S
MUSCATINE *    PTSUNNY   63  46  55 N17G25    30.04S
QUAD CITIES    CLOUDY    61  48  62 N7        30.02R
$$

IAZ062-063-075>077-085>089-095>099-282000-
   SOUTHEAST IOWA

CITY           SKY/WX    TMP DP  RH WIND       PRES   REMARKS
BURLINGTON     CLOUDY    59  48  67 N12G22    30.04R
FAIRFIELD *    CLOUDY    61  45  55 N12G22    30.07R
FORT MADISON * CLOUDY    61  48  63 N9G18     30.06R
KEOKUK *       CLOUDY    61  46  59 NW12G17   30.05R
OSKALOOSA *    CLOUDY    60  47  61 N15       30.10R
OTTUMWA        CLOUDY    61  46  57 N16       30.09R
WASHINGTON *     N/A    N/A N/A N/A MISG        N/A
$$

ABBREVIATIONS USED IN REMARKS
   TC - TEMPERATURES IN CELSIUS
  WCI - WIND CHILL INDEX
   HX - HEAT INDEX
  VSB - VISIBILITY
$$





USA.gov is the U.S. government's official web portal to all federal, state and local government web resources and services.